Location: Gloden
(48.4833°N, 15.3167°E)
Time: 22:12:25
(UTC+00:00)

Envisat - Visible Passes

Search period start: 26 February 2021 00:00
Search period end: 08 March 2021 00:00
Orbit: 764 x 766 km, 98.1° (Epoch: 26 February)

Date Brightness Start Highest point End Pass type
(mag) Time Alt. Az. Time Alt. Az. Time Alt. Az.
26 Feb 6.3 03:09:05 10° ENE 03:10:31 11° E 03:11:57 10° E visible
26 Feb 3.2 04:45:17 10° NNE 04:50:24 78° ESE 04:55:29 10° S visible
27 Feb 4.6 04:08:42 10° NNE 04:13:26 38° E 04:18:09 10° SSE visible
27 Feb 6.2 17:08:05 10° SW 17:11:22 17° W 17:14:40 10° NW visible
28 Feb 5.8 03:32:42 10° NE 03:36:17 19° E 03:39:50 10° SE visible
28 Feb 3.0 05:10:43 10° N 05:15:46 65° WNW 05:20:47 10° SSW visible
01 Mar 3.6 04:33:53 10° NNE 04:38:57 63° E 04:43:58 10° S visible
02 Mar 5.0 03:57:26 10° NNE 04:01:56 31° E 04:06:24 10° SSE visible
03 Mar 6.0 03:21:46 10° NE 03:24:43 15° E 03:27:38 10° ESE visible
03 Mar 3.0 04:59:15 10° NNE 05:04:22 80° WNW 05:09:26 10° SSW visible
04 Mar 4.0 04:22:31 10° NNE 04:27:29 50° E 04:32:24 10° S visible
04 Mar 6.5 17:23:21 10° WSW 17:25:32 13° W 17:27:44 10° WNW visible
05 Mar 5.4 03:46:14 10° NE 03:50:24 25° E 03:54:34 10° SSE visible
06 Mar 6.2 03:11:09 10° ENE 03:13:07 12° E 03:15:04 10° ESE visible
06 Mar 3.1 04:47:49 10° NNE 04:52:56 83° ESE 04:58:01 10° SSW visible
07 Mar 4.5 04:11:11 10° NNE 04:16:00 41° E 04:20:46 10° SSE visible
